Date String (YYYY-MM-DD hh:mm:ss) UTC,Instrument flags,Ambient pressure (hPa),Sample flow (lpm),Bypass flow (lpm),Sample temperature (°C),Ambient temperature (°C),ASC tube jacket temperature (°C),LED temperature (°C),Box temperature (°C),Sample RH (%),Span deviation,Mass concentration (μg/m³),Mass concentration (μg/m³),Mass concentration (μg/m³)
DateTimeUTC,F1_M11,P_M11,Q1_M11,Q2_M11,T1_M11,T2_M11,T3_M11,T4_M11,T5_M11,U1_M11,ZSPAN_M11,X0_M11,X2_M11,X1_M11
2022-01-21 07:00:00,,0823.1,4.99,0.00,22.4,22.1,00.0,31.3,24.2,12.8,-001.2,0018.15,0014.05,0013.73
2022-01-21 07:01:00,,0823.1,5.01,0.00,22.4,22.0,00.0,31.3,24.2,12.8,-001.2,0018.20,0014.04,0013.73
2022-01-21 07:02:00,,0823.1,4.99,0.00,22.4,22.0,00.0,31.3,24.2,12.8,-001.3,0018.39,0014.12,0013.80
2022-01-21 07:03:00,,0823.0,5.02,0.00,22.4,21.9,00.0,31.3,24.1,12.8,-001.5,0018.22,0014.03,0013.74
2022-01-21 07:04:00,,0823.1,4.99,0.00,22.4,21.8,00.0,31.3,24.1,12.8,-001.5,0018.23,0014.02,0013.72
2022-01-21 07:05:00,,0823.1,5.01,0.00,22.4,21.8,00.0,31.3,24.1,12.9,-001.4,0018.33,0014.10,0013.78
2022-01-21 07:06:00,,0822.9,4.99,0.00,22.3,21.7,00.0,31.3,24.1,12.9,-001.4,0018.31,0014.12,0013.83
2022-01-21 07:07:00,,0822.9,5.01,0.00,22.3,21.7,00.0,31.3,24.1,12.8,-001.4,0018.27,0014.11,0013.84
2022-01-21 07:08:00,,0822.9,5.00,0.00,22.3,21.7,00.0,31.3,24.1,12.8,-001.3,0018.29,0014.14,0013.87
2022-01-21 07:09:00,,0822.9,5.01,0.00,22.3,21.7,00.0,31.3,24.0,12.8,-001.2,0018.19,0014.12,0013.85
2022-01-21 07:10:00,,0822.9,4.98,0.00,22.3,21.6,00.0,31.3,24.0,12.8,-001.2,0018.03,0014.03,0013.77
2022-01-21 07:11:00,,0823.0,5.02,0.00,22.3,21.6,00.0,31.2,24.0,12.8,-001.1,0017.94,0013.97,0013.72
2022-01-21 07:12:00,,0822.8,4.99,0.00,22.3,21.6,00.0,31.2,24.0,12.8,-001.2,0017.78,0013.86,0013.60
2022-01-21 07:13:00,,0822.9,5.01,0.00,22.3,21.6,00.0,31.2,24.0,12.7,-001.3,0017.47,0013.68,0013.43
2022-01-21 07:14:00,,0822.8,4.99,0.00,22.2,21.5,00.0,31.2,24.0,12.8,-001.5,0017.40,0013.62,0013.35
2022-01-21 07:15:00,,0822.7,5.02,0.00,22.2,21.5,00.0,31.2,24.0,12.8,-001.6,0017.34,0013.56,0013.29
2022-01-21 07:16:00,,0822.6,4.99,0.00,22.2,21.5,00.0,31.2,24.0,12.8,-001.7,0017.21,0013.47,0013.23
2022-01-21 07:17:00,,0822.6,5.01,0.00,22.2,21.5,00.0,31.2,23.9,12.8,-001.9,0017.16,0013.37,0013.13
2022-01-21 07:18:00,,0822.7,4.99,0.00,22.2,21.5,00.0,31.2,23.9,12.8,-002.1,0017.14,0013.32,0013.09
2022-01-21 07:19:00,,0822.7,5.01,0.00,22.2,21.8,00.0,31.2,24.0,12.7,-002.3,0017.06,0013.26,0013.01
2022-01-21 07:20:00,,0822.7,5.00,0.00,22.3,22.6,00.0,31.2,24.2,12.7,-002.4,0017.02,0013.20,0012.94
2022-01-21 07:21:00,,0822.6,4.99,0.00,22.5,23.2,00.0,31.3,24.4,12.5,-002.5,0016.92,0013.11,0012.86
2022-01-21 07:22:00,,0822.7,4.99,0.00,22.5,23.0,00.0,31.3,24.5,12.5,-002.4,0016.82,0013.03,0012.76
2022-01-21 07:23:00,,0822.6,5.00,0.00,22.5,22.8,00.0,31.3,24.4,12.5,-002.5,0016.70,0012.92,0012.65
2022-01-21 07:24:00,,0822.6,5.01,0.00,22.5,22.6,00.0,31.3,24.3,12.5,-002.5,0016.61,0012.84,0012.57
2022-01-21 07:25:00,,0822.7,4.99,0.00,22.5,22.4,00.0,31.3,24.2,12.5,-002.5,0016.53,0012.74,0012.48
2022-01-21 07:26:00,,0822.6,5.01,0.00,22.4,22.2,00.0,31.3,24.2,12.5,-002.5,0016.48,0012.67,0012.41
2022-01-21 07:27:00,,0822.6,4.98,0.00,22.4,22.1,00.0,31.3,24.2,12.6,-002.5,0016.45,0012.62,0012.35
2022-01-21 07:28:00,,0822.6,5.01,0.00,22.4,22.0,00.0,31.3,24.1,12.6,-002.4,0016.40,0012.62,0012.35
2022-01-21 07:29:00,,0822.6,4.99,0.00,22.4,21.9,00.0,31.3,24.1,12.6,-002.3,0016.46,0012.64,0012.36
2022-01-21 07:30:00,,0822.6,5.00,0.00,22.4,21.8,00.0,31.3,24.1,12.6,-002.3,0016.50,0012.67,0012.40
2022-01-21 07:31:00,,0822.6,5.02,0.00,22.3,21.8,00.0,31.3,24.1,12.6,-002.2,0016.55,0012.68,0012.42
2022-01-21 07:32:00,,0822.6,4.99,0.00,22.3,21.7,00.0,31.3,24.0,12.7,-002.2,0016.63,0012.71,0012.42
2022-01-21 07:33:00,,0822.5,5.02,0.00,22.3,21.7,00.0,31.3,24.0,12.7,-002.4,0016.80,0012.81,0012.52
2022-01-21 07:34:00,,0822.6,4.99,0.00,22.3,21.6,00.0,31.3,24.0,12.7,-002.3,0016.90,0012.90,0012.60
2022-01-21 07:35:00,,0822.5,5.01,0.00,22.3,21.6,00.0,31.3,24.0,12.7,-002.2,0017.11,0013.01,0012.71
2022-01-21 07:36:00,,0822.5,4.99,0.00,22.3,21.6,00.0,31.3,24.0,12.7,-002.1,0017.18,0013.07,0012.77
2022-01-21 07:37:00,,0822.5,5.01,0.00,22.2,21.6,00.0,31.3,23.9,12.7,-002.1,0017.11,0013.08,0012.79
2022-01-21 07:38:00,,0822.5,4.99,0.00,22.2,21.5,00.0,31.3,23.9,12.8,-002.0,0017.14,0013.12,0012.82
2022-01-21 07:39:00,,0822.5,5.00,0.00,22.2,21.5,00.0,31.2,23.9,12.8,-001.8,0017.26,0013.21,0012.89
2022-01-21 07:40:00,,0822.5,5.00,0.00,22.2,21.5,00.0,31.2,23.9,12.9,-001.8,0017.32,0013.27,0012.94
2022-01-21 07:41:00,,0822.5,5.01,0.00,22.2,21.5,00.0,31.2,23.8,12.9,-001.8,0017.29,0013.26,0012.92
2022-01-21 07:42:00,,0822.5,4.99,0.00,22.1,21.4,00.0,31.2,23.8,12.9,-001.7,0017.24,0013.24,0012.90
2022-01-21 07:43:00,,0822.5,5.01,0.00,22.1,21.4,00.0,31.2,23.8,12.9,-001.7,0017.25,0013.29,0012.96
2022-01-21 07:44:00,,0822.5,4.99,0.00,22.1,21.4,00.0,31.2,23.8,12.9,-001.7,0017.17,0013.22,0012.91
2022-01-21 07:45:00,,0822.5,5.01,0.00,22.2,22.0,00.0,31.2,23.9,12.9,-001.6,0017.10,0013.18,0012.88
2022-01-21 07:46:00,,0822.5,4.99,0.00,22.3,22.7,00.0,31.2,24.2,12.8,-001.6,0016.91,0013.09,0012.81
2022-01-21 07:47:00,,0822.6,5.00,0.00,22.4,23.1,00.0,31.3,24.4,12.7,-001.8,0016.84,0013.07,0012.81
2022-01-21 07:48:00,,0822.6,5.00,0.00,22.5,22.9,00.0,31.3,24.4,12.7,-001.6,0016.91,0013.09,0012.82
2022-01-21 07:49:00,,0822.6,5.01,0.00,22.5,22.7,00.0,31.3,24.4,12.7,-001.7,0016.86,0013.05,0012.80
2022-01-21 07:50:00,,0822.6,4.99,0.00,22.5,22.5,00.0,31.3,24.3,12.7,-001.8,0016.63,0012.90,0012.66
2022-01-21 07:51:00,,0822.6,5.00,0.00,22.4,22.3,00.0,31.3,24.2,12.7,-001.9,0016.50,0012.80,0012.57
2022-01-21 07:52:00,,0822.6,4.99,0.00,22.4,22.2,00.0,31.3,24.2,12.7,-001.7,0016.48,0012.80,0012.59
2022-01-21 07:53:00,,0822.5,4.99,0.00,22.4,22.1,00.0,31.3,24.1,12.7,-001.7,0016.48,0012.80,0012.60
2022-01-21 07:54:00,,0822.5,5.01,0.00,22.4,22.0,00.0,31.3,24.1,12.7,-001.7,0016.49,0012.75,0012.56
2022-01-21 07:55:00,,0822.5,4.99,0.00,22.4,21.9,00.0,31.3,24.1,12.7,-001.5,0016.47,0012.75,0012.56
2022-01-21 07:56:00,,0822.5,5.02,0.00,22.3,21.8,00.0,31.3,24.1,12.7,-001.6,0016.47,0012.73,0012.54
2022-01-21 07:57:00,,0822.5,5.00,0.00,22.3,21.8,00.0,31.3,24.1,12.7,-001.7,0016.61,0012.77,0012.57
2022-01-21 07:58:00,,0822.5,5.01,0.00,22.3,21.8,00.0,31.3,24.1,12.7,-001.5,0016.68,0012.80,0012.58
2022-01-21 07:59:00,,0822.4,5.00,0.00,22.3,21.7,00.0,31.3,24.1,12.7,-001.6,0016.75,0012.87,0012.65
